マクノート彗星

C/2005 S4 ( McNaught )

English version
Home page
Total 6,336 html files since Dec. 4, 1995
Updated on June 21, 2008

---------------------------------------------------------------------

・ プロフィール

発見日 2005年9月30日
発見光度 18.9等
発見者 R. H. McNaught (Siding Spring Survey)

・ 写真集

・ 軌道要素

The following orbital elements are taken from MPC 60464:

Epoch 2007 June 29.0 TT = JDT 2454280.5
T 2007 July 18.6747 TT                                  MPC
q   5.850099             (2000.0)            P               Q
z  +0.000178       Peri.   31.4567      +0.5297525      -0.5645768
 +/-0.000002       Node   318.2902      -0.8284134      -0.1843639
e   0.998957       Incl.  107.9586      +0.1819162      +0.8045265
From 358 observations 2005 July 27-2007 Aug. 21, mean residual 0".6.

・ 星図

・ 光度変化

        m1 = 5.5 + 5 logΔ + 10.0 log r

---------------------------------------------------------------------

軌道要素はMPCのEphemerides and Orbital Elementsに掲載されたものです。
星図は StellaNavigator Ver.2.0 for Windows (アストロアーツ 編著 / アスキー出版局刊) で作成したものです。
光度グラフはComet for Windowsで作成したものです。

---------------------------------------------------------------------

Copyright(C) 1995-2008 Seiichi Yoshida (comet@aerith.net). All rights reserved.